Year,Month,Day,Hour,Minute,Value (Times are PST for windgust in km/hr)
2009,11,21,00,00,0.00
2009,11,21,00,01,0.00
2009,11,21,00,02,0.00
2009,11,21,00,03,0.00
2009,11,21,00,04,0.00
2009,11,21,00,05,0.00
2009,11,21,00,06,0.00
2009,11,21,00,07,0.00
2009,11,21,00,08,0.00
2009,11,21,00,09,0.00
2009,11,21,00,10,0.00
2009,11,21,00,11,0.00
2009,11,21,00,12,0.00
2009,11,21,00,13,0.00
2009,11,21,00,14,0.00
2009,11,21,00,15,0.00
2009,11,21,00,16,0.00
2009,11,21,00,17,0.00
2009,11,21,00,18,0.00
2009,11,21,00,19,0.00
2009,11,21,00,20,0.00
2009,11,21,00,21,0.00
2009,11,21,00,22,0.00
2009,11,21,00,23,0.00
2009,11,21,00,24,0.00
2009,11,21,00,25,0.00
2009,11,21,00,26,0.00
2009,11,21,00,27,0.00
2009,11,21,00,28,0.00
2009,11,21,00,29,20.90
2009,11,21,00,30,25.70
2009,11,21,00,31,22.50
2009,11,21,00,32,20.90
2009,11,21,00,33,29.00
2009,11,21,00,34,37.00
2009,11,21,00,35,19.30
2009,11,21,00,36,24.20
2009,11,21,00,37,22.50
2009,11,21,00,38,16.10
2009,11,21,00,39,29.00
2009,11,21,00,40,20.90
2009,11,21,00,41,12.90
2009,11,21,00,42,17.70
2009,11,21,00,43,24.20
2009,11,21,00,44,29.00
2009,11,21,00,45,8.10
2009,11,21,00,46,19.30
2009,11,21,00,47,20.90
2009,11,21,00,48,16.10
2009,11,21,00,49,11.30
2009,11,21,00,50,22.50
2009,11,21,00,51,12.90
2009,11,21,00,52,14.50
2009,11,21,00,53,24.20
2009,11,21,00,54,9.60
2009,11,21,00,55,11.30
2009,11,21,00,56,9.60
2009,11,21,00,57,12.90
2009,11,21,00,58,11.30
2009,11,21,00,59,8.10
2009,11,21,01,00,8.10
2009,11,21,01,01,8.10
2009,11,21,01,02,17.70
2009,11,21,01,03,12.90
2009,11,21,01,04,4.80
2009,11,21,01,05,17.70
2009,11,21,01,06,8.10
2009,11,21,01,07,9.60
2009,11,21,01,08,17.70
2009,11,21,01,09,9.60
2009,11,21,01,10,8.10
2009,11,21,01,11,19.30
2009,11,21,01,12,8.10
2009,11,21,01,13,9.60
2009,11,21,01,14,6.40
2009,11,21,01,15,4.80
2009,11,21,01,16,1.60
2009,11,21,01,17,9.60
2009,11,21,01,18,4.80
2009,11,21,01,19,3.20
2009,11,21,01,20,3.20
2009,11,21,01,21,3.20
2009,11,21,01,22,11.30
2009,11,21,01,23,8.10
2009,11,21,01,24,8.10
2009,11,21,01,25,9.60
2009,11,21,01,26,4.80
2009,11,21,01,27,12.90
2009,11,21,01,28,4.80
2009,11,21,01,29,8.10
2009,11,21,01,30,9.60
2009,11,21,01,31,9.60
2009,11,21,01,32,6.40
2009,11,21,01,33,3.20
2009,11,21,01,34,4.80
2009,11,21,01,35,3.20
2009,11,21,01,36,1.60
2009,11,21,01,37,3.20
2009,11,21,01,38,8.10
2009,11,21,01,39,3.20
2009,11,21,01,40,1.60
2009,11,21,01,41,0.00
2009,11,21,01,42,1.60
2009,11,21,01,43,0.00
2009,11,21,01,44,0.00
2009,11,21,01,45,1.60
2009,11,21,01,46,1.60
2009,11,21,01,47,0.00
2009,11,21,01,48,0.00
2009,11,21,01,49,0.00
2009,11,21,01,50,6.40
2009,11,21,01,51,0.00
2009,11,21,01,52,1.60
2009,11,21,01,53,3.20
2009,11,21,01,54,1.60
2009,11,21,01,55,1.60
2009,11,21,01,56,0.00
2009,11,21,01,57,3.20
2009,11,21,01,58,4.80
2009,11,21,01,59,11.30
2009,11,21,02,00,9.60
2009,11,21,02,01,9.60
2009,11,21,02,02,14.50
2009,11,21,02,03,22.50
2009,11,21,02,04,19.30
2009,11,21,02,05,19.30
2009,11,21,02,06,14.50
2009,11,21,02,07,9.60
2009,11,21,02,08,19.30
2009,11,21,02,09,11.30
2009,11,21,02,10,4.80
2009,11,21,02,11,4.80
2009,11,21,02,12,0.00
2009,11,21,02,13,4.80
2009,11,21,02,14,6.40
2009,11,21,02,15,8.10
2009,11,21,02,16,6.40
2009,11,21,02,17,6.40
2009,11,21,02,18,8.10
2009,11,21,02,19,1.60
2009,11,21,02,20,1.60
2009,11,21,02,21,3.20
2009,11,21,02,22,6.40
2009,11,21,02,23,6.40
2009,11,21,02,24,6.40
2009,11,21,02,25,9.60
2009,11,21,02,26,8.10
2009,11,21,02,27,4.80
2009,11,21,02,28,8.10
2009,11,21,02,29,9.60
2009,11,21,02,30,8.10
2009,11,21,02,31,6.40
2009,11,21,02,32,6.40
2009,11,21,02,33,8.10
2009,11,21,02,34,8.10
2009,11,21,02,35,19.30
2009,11,21,02,36,16.10
2009,11,21,02,37,8.10
2009,11,21,02,38,9.60
2009,11,21,02,39,11.30
2009,11,21,02,40,6.40
2009,11,21,02,41,14.50
2009,11,21,02,42,11.30
2009,11,21,02,43,9.60
2009,11,21,02,44,11.30
2009,11,21,02,45,12.90
2009,11,21,02,46,11.30
2009,11,21,02,47,14.50
2009,11,21,02,48,1.60
2009,11,21,02,49,3.20
2009,11,21,02,50,0.00
2009,11,21,02,51,4.80
2009,11,21,02,52,8.10
2009,11,21,02,53,9.60
2009,11,21,02,54,6.40
2009,11,21,02,55,6.40
2009,11,21,02,56,6.40
2009,11,21,02,57,1.60
2009,11,21,02,58,4.80
2009,11,21,02,59,6.40
2009,11,21,03,00,3.20
2009,11,21,03,01,4.80
2009,11,21,03,02,1.60
2009,11,21,03,03,0.00
2009,11,21,03,04,4.80
2009,11,21,03,05,3.20
2009,11,21,03,06,3.20
2009,11,21,03,07,6.40
2009,11,21,03,08,3.20
2009,11,21,03,09,1.60
2009,11,21,03,10,0.00
2009,11,21,03,11,1.60
2009,11,21,03,12,4.80
2009,11,21,03,13,0.00
2009,11,21,03,14,1.60
2009,11,21,03,15,0.00
2009,11,21,03,16,0.00
2009,11,21,03,17,1.60
2009,11,21,03,18,0.00
2009,11,21,03,19,0.00
2009,11,21,03,20,1.60
2009,11,21,03,21,0.00
2009,11,21,03,22,1.60
2009,11,21,03,23,1.60
2009,11,21,03,24,0.00
2009,11,21,03,25,0.00
2009,11,21,03,26,3.20
2009,11,21,03,27,3.20
2009,11,21,03,28,6.40
2009,11,21,03,29,1.60
2009,11,21,03,30,0.00
2009,11,21,03,31,0.00
2009,11,21,03,32,0.00
2009,11,21,03,33,0.00
2009,11,21,03,34,0.00
2009,11,21,03,35,0.00
2009,11,21,03,36,0.00
2009,11,21,03,37,0.00
2009,11,21,03,38,1.60
2009,11,21,03,39,0.00
2009,11,21,03,40,0.00
2009,11,21,03,41,0.00
2009,11,21,03,42,1.60
2009,11,21,03,43,1.60
2009,11,21,03,44,1.60
2009,11,21,03,45,0.00
2009,11,21,03,46,0.00
2009,11,21,03,47,0.00
2009,11,21,03,48,0.00
2009,11,21,03,49,0.00
2009,11,21,03,50,0.00
2009,11,21,03,51,3.20
2009,11,21,03,52,1.60
2009,11,21,03,53,0.00
2009,11,21,03,54,0.00
2009,11,21,03,55,1.60
2009,11,21,03,56,3.20
2009,11,21,03,57,4.80
2009,11,21,03,58,0.00
2009,11,21,03,59,1.60
2009,11,21,04,00,0.00
2009,11,21,04,01,3.20
2009,11,21,04,02,1.60
2009,11,21,04,03,1.60
2009,11,21,04,04,4.80
2009,11,21,04,11,0.00
2009,11,21,04,12,0.00
2009,11,21,04,13,1.60
2009,11,21,04,14,0.00
2009,11,21,04,15,0.00
2009,11,21,04,16,1.60
2009,11,21,04,17,3.20
2009,11,21,04,18,4.80
2009,11,21,04,19,4.80
2009,11,21,04,20,1.60
2009,11,21,04,21,0.00
2009,11,21,04,22,1.60
2009,11,21,04,23,1.60
2009,11,21,04,24,1.60
2009,11,21,04,25,1.60
2009,11,21,04,26,1.60
2009,11,21,04,27,1.60
2009,11,21,04,28,4.80
2009,11,21,04,29,6.40
2009,11,21,04,30,3.20
2009,11,21,04,31,3.20
2009,11,21,04,32,1.60
2009,11,21,04,33,4.80
2009,11,21,04,34,3.20
2009,11,21,04,35,6.40
2009,11,21,04,36,1.60
2009,11,21,04,37,1.60
2009,11,21,04,38,1.60
2009,11,21,04,39,1.60
2009,11,21,04,40,1.60
2009,11,21,04,41,3.20
2009,11,21,04,42,4.80
2009,11,21,04,43,4.80
2009,11,21,04,44,1.60
2009,11,21,04,45,3.20
2009,11,21,04,46,1.60
2009,11,21,04,47,0.00
2009,11,21,04,48,3.20
2009,11,21,04,49,6.40
2009,11,21,04,50,0.00
2009,11,21,04,51,3.20
2009,11,21,04,52,4.80
2009,11,21,04,53,6.40
2009,11,21,04,54,4.80
2009,11,21,04,55,6.40
2009,11,21,04,56,4.80
2009,11,21,04,57,6.40
2009,11,21,04,58,1.60
2009,11,21,04,59,3.20
2009,11,21,05,00,4.80
2009,11,21,05,01,3.20
2009,11,21,05,02,6.40
2009,11,21,05,03,11.30
2009,11,21,05,04,8.10
2009,11,21,05,05,11.30
2009,11,21,05,06,6.40
2009,11,21,05,07,6.40
2009,11,21,05,08,1.60
2009,11,21,05,09,1.60
2009,11,21,05,10,0.00
2009,11,21,05,11,6.40
2009,11,21,05,12,16.10
2009,11,21,05,13,4.80
2009,11,21,05,14,3.20
2009,11,21,05,15,3.20
2009,11,21,05,16,1.60
2009,11,21,05,17,3.20
2009,11,21,05,18,3.20
2009,11,21,05,19,4.80
2009,11,21,05,20,1.60
2009,11,21,05,21,3.20
2009,11,21,05,22,4.80
2009,11,21,05,23,1.60
2009,11,21,05,24,4.80
2009,11,21,05,25,3.20
2009,11,21,05,26,6.40
2009,11,21,05,27,4.80
2009,11,21,05,28,1.60
2009,11,21,05,29,1.60
2009,11,21,05,30,6.40
2009,11,21,05,31,4.80
2009,11,21,05,32,3.20
2009,11,21,05,33,3.20
2009,11,21,05,34,0.00
2009,11,21,05,35,0.00
2009,11,21,05,36,0.00
2009,11,21,05,37,0.00
2009,11,21,05,38,0.00
2009,11,21,05,39,1.60
2009,11,21,05,40,1.60
2009,11,21,05,41,0.00
2009,11,21,05,42,0.00
2009,11,21,05,43,0.00
2009,11,21,05,44,0.00
2009,11,21,05,45,0.00
2009,11,21,05,46,0.00
2009,11,21,05,47,0.00
2009,11,21,05,48,0.00
2009,11,21,05,49,0.00
2009,11,21,05,50,0.00
2009,11,21,05,51,0.00
2009,11,21,05,52,0.00
2009,11,21,05,53,0.00
2009,11,21,05,54,0.00
2009,11,21,05,55,0.00
2009,11,21,05,56,0.00
2009,11,21,05,57,0.00
2009,11,21,05,58,1.60
2009,11,21,05,59,1.60
2009,11,21,06,00,1.60
2009,11,21,06,01,3.20
2009,11,21,06,02,3.20
2009,11,21,06,03,1.60
2009,11,21,06,04,1.60
2009,11,21,06,05,0.00
2009,11,21,06,06,1.60
2009,11,21,06,07,0.00
2009,11,21,06,08,0.00
2009,11,21,06,09,1.60
2009,11,21,06,10,1.60
2009,11,21,06,11,1.60
2009,11,21,06,12,3.20
2009,11,21,06,13,3.20
2009,11,21,06,14,1.60
2009,11,21,06,15,0.00
2009,11,21,06,16,0.00
2009,11,21,06,17,0.00
2009,11,21,06,18,0.00
2009,11,21,06,19,0.00
2009,11,21,06,20,0.00
2009,11,21,06,21,0.00
2009,11,21,06,22,0.00
2009,11,21,06,23,0.00
2009,11,21,06,24,0.00
2009,11,21,06,25,0.00
2009,11,21,06,26,1.60
2009,11,21,06,27,0.00
2009,11,21,06,28,0.00
2009,11,21,06,29,1.60
2009,11,21,06,30,1.60
2009,11,21,06,31,1.60
2009,11,21,06,32,0.00
2009,11,21,06,33,4.80
2009,11,21,06,34,1.60
2009,11,21,06,35,1.60
2009,11,21,06,36,3.20
2009,11,21,06,37,0.00
2009,11,21,06,38,0.00
2009,11,21,06,39,1.60
2009,11,21,06,40,1.60
2009,11,21,06,41,1.60
2009,11,21,06,42,1.60
2009,11,21,06,43,0.00
2009,11,21,06,44,0.00
2009,11,21,06,45,8.10
2009,11,21,06,46,0.00
2009,11,21,06,47,1.60
2009,11,21,06,48,3.20
2009,11,21,06,49,0.00
2009,11,21,06,50,0.00
2009,11,21,06,51,3.20
2009,11,21,06,52,1.60
2009,11,21,06,53,3.20
2009,11,21,06,54,1.60
2009,11,21,06,55,1.60
2009,11,21,06,56,0.00
2009,11,21,06,57,0.00
2009,11,21,06,58,0.00
2009,11,21,06,59,0.00
2009,11,21,07,00,0.00
2009,11,21,07,01,0.00
2009,11,21,07,02,0.00
2009,11,21,07,03,0.00
2009,11,21,07,04,0.00
2009,11,21,07,05,0.00
2009,11,21,07,06,1.60
2009,11,21,07,07,1.60
2009,11,21,07,08,1.60
2009,11,21,07,09,0.00
2009,11,21,07,10,0.00
2009,11,21,07,11,0.00
2009,11,21,07,12,0.00
2009,11,21,07,13,0.00
2009,11,21,07,14,0.00
2009,11,21,07,15,0.00
2009,11,21,07,16,0.00
2009,11,21,07,17,3.20
2009,11,21,07,18,0.00
2009,11,21,07,19,1.60
2009,11,21,07,20,0.00
2009,11,21,07,21,0.00
2009,11,21,07,22,1.60
2009,11,21,07,23,1.60
2009,11,21,07,24,3.20
2009,11,21,07,25,3.20
2009,11,21,07,26,0.00
2009,11,21,07,27,0.00
2009,11,21,07,28,1.60
2009,11,21,07,29,0.00
2009,11,21,07,30,0.00
2009,11,21,07,31,0.00
2009,11,21,07,32,0.00
2009,11,21,07,33,0.00
2009,11,21,07,34,0.00
2009,11,21,07,35,0.00
2009,11,21,07,36,0.00
2009,11,21,07,37,0.00
2009,11,21,07,38,0.00
2009,11,21,07,39,1.60
2009,11,21,07,40,3.20
2009,11,21,07,41,3.20
2009,11,21,07,42,1.60
2009,11,21,07,43,1.60
2009,11,21,07,44,0.00
2009,11,21,07,45,0.00
2009,11,21,07,46,0.00
2009,11,21,07,47,1.60
2009,11,21,07,48,0.00
2009,11,21,07,49,0.00
2009,11,21,07,50,0.00
2009,11,21,07,51,0.00
2009,11,21,07,52,0.00
2009,11,21,07,53,0.00
2009,11,21,07,54,0.00
2009,11,21,07,55,0.00
2009,11,21,07,56,0.00
2009,11,21,07,57,0.00
2009,11,21,07,58,0.00
2009,11,21,07,59,0.00
2009,11,21,08,00,0.00
2009,11,21,08,01,0.00
2009,11,21,08,02,0.00
2009,11,21,08,03,1.60
2009,11,21,08,04,1.60
2009,11,21,08,05,0.00
2009,11,21,08,06,0.00
2009,11,21,08,07,0.00
2009,11,21,08,08,0.00
2009,11,21,08,09,0.00
2009,11,21,08,10,1.60
2009,11,21,08,11,3.20
2009,11,21,08,12,1.60
2009,11,21,08,13,3.20
2009,11,21,08,14,1.60
2009,11,21,08,15,0.00
2009,11,21,08,16,4.80
2009,11,21,08,17,3.20
2009,11,21,08,18,11.30
2009,11,21,08,19,4.80
2009,11,21,08,20,1.60
2009,11,21,08,21,4.80
2009,11,21,08,22,9.60
2009,11,21,08,23,9.60
2009,11,21,08,24,8.10
2009,11,21,08,25,11.30
2009,11,21,08,26,8.10
2009,11,21,08,27,4.80
2009,11,21,08,28,9.60
2009,11,21,08,29,8.10
2009,11,21,08,30,4.80
2009,11,21,08,31,6.40
2009,11,21,08,32,4.80
2009,11,21,08,33,4.80
2009,11,21,08,34,8.10
2009,11,21,08,35,6.40
2009,11,21,08,36,4.80
2009,11,21,08,37,4.80
2009,11,21,08,38,8.10
2009,11,21,08,39,6.40
2009,11,21,08,40,8.10
2009,11,21,08,41,6.40
2009,11,21,08,42,11.30
2009,11,21,08,43,4.80
2009,11,21,08,44,3.20
2009,11,21,08,45,6.40
2009,11,21,08,46,6.40
2009,11,21,08,47,14.50
2009,11,21,08,48,11.30
2009,11,21,08,49,11.30
2009,11,21,08,50,16.10
2009,11,21,08,51,11.30
2009,11,21,08,52,17.70
2009,11,21,08,53,8.10
2009,11,21,08,54,14.50
2009,11,21,08,55,4.80
2009,11,21,08,56,11.30
2009,11,21,08,57,9.60
2009,11,21,08,58,9.60
2009,11,21,08,59,11.30
2009,11,21,09,00,11.30
2009,11,21,09,01,11.30
2009,11,21,09,02,11.30
2009,11,21,09,03,9.60
2009,11,21,09,04,11.30
2009,11,21,09,05,14.50
2009,11,21,09,06,14.50
2009,11,21,09,07,9.60
2009,11,21,09,08,11.30
2009,11,21,09,09,12.90
2009,11,21,09,10,16.10
2009,11,21,09,11,14.50
2009,11,21,09,12,16.10
2009,11,21,09,13,9.60
2009,11,21,09,14,11.30
2009,11,21,09,15,22.50
2009,11,21,09,16,16.10
2009,11,21,09,17,4.80
2009,11,21,09,18,16.10
2009,11,21,09,19,17.70
2009,11,21,09,20,14.50
2009,11,21,09,21,14.50
2009,11,21,09,22,14.50
2009,11,21,09,23,12.90
2009,11,21,09,24,14.50
2009,11,21,09,25,11.30
2009,11,21,09,26,22.50
2009,11,21,09,27,17.70
2009,11,21,09,28,11.30
2009,11,21,09,29,11.30
2009,11,21,09,30,14.50
2009,11,21,09,31,6.40
2009,11,21,09,32,6.40
2009,11,21,09,33,4.80
2009,11,21,09,34,11.30
2009,11,21,09,35,16.10
2009,11,21,09,36,9.60
2009,11,21,09,37,14.50
2009,11,21,09,38,16.10
2009,11,21,09,39,8.10
2009,11,21,09,40,4.80
2009,11,21,09,41,11.30
2009,11,21,09,42,8.10
2009,11,21,09,43,4.80
2009,11,21,09,44,8.10
2009,11,21,09,45,6.40
2009,11,21,09,46,8.10
2009,11,21,09,47,9.60
2009,11,21,09,48,9.60
2009,11,21,09,49,9.60
2009,11,21,09,50,11.30
2009,11,21,09,51,11.30
2009,11,21,09,52,16.10
2009,11,21,09,53,16.10
2009,11,21,09,54,9.60
2009,11,21,09,55,9.60
2009,11,21,09,56,9.60
2009,11,21,09,57,9.60
2009,11,21,09,58,8.10
2009,11,21,09,59,14.50
2009,11,21,10,00,4.80
2009,11,21,10,01,9.60
2009,11,21,10,02,16.10
2009,11,21,10,03,8.10
2009,11,21,10,04,4.80
2009,11,21,10,05,19.30
2009,11,21,10,06,14.50
2009,11,21,10,07,9.60
2009,11,21,10,08,11.30
2009,11,21,10,09,8.10
2009,11,21,10,10,8.10
2009,11,21,10,11,6.40
2009,11,21,10,12,9.60
2009,11,21,10,13,9.60
2009,11,21,10,14,9.60
2009,11,21,10,15,16.10
2009,11,21,10,16,9.60
2009,11,21,10,17,6.40
2009,11,21,10,18,4.80
2009,11,21,10,19,8.10
2009,11,21,10,20,9.60
2009,11,21,10,21,8.10
2009,11,21,10,22,6.40
2009,11,21,10,23,4.80
2009,11,21,10,24,9.60
2009,11,21,10,25,16.10
2009,11,21,10,26,11.30
2009,11,21,10,27,9.60
2009,11,21,10,28,6.40
2009,11,21,10,29,3.20
2009,11,21,10,30,11.30
2009,11,21,10,31,9.60
2009,11,21,10,32,11.30
2009,11,21,10,33,11.30
2009,11,21,10,34,4.80
2009,11,21,10,35,9.60
2009,11,21,10,36,8.10
2009,11,21,10,37,12.90
2009,11,21,10,38,9.60
2009,11,21,10,39,9.60
2009,11,21,10,40,12.90
2009,11,21,10,41,8.10
2009,11,21,10,42,9.60
2009,11,21,10,43,12.90
2009,11,21,10,44,14.50
2009,11,21,10,45,11.30
2009,11,21,10,46,11.30
2009,11,21,10,47,14.50
2009,11,21,10,48,8.10
2009,11,21,10,49,9.60
2009,11,21,10,50,12.90
2009,11,21,10,51,12.90
2009,11,21,10,52,11.30
2009,11,21,10,53,6.40
2009,11,21,10,54,6.40
2009,11,21,10,55,8.10
2009,11,21,10,56,11.30
2009,11,21,10,57,11.30
2009,11,21,10,58,6.40
2009,11,21,10,59,17.70
2009,11,21,11,00,14.50
2009,11,21,11,01,11.30
2009,11,21,11,02,8.10
2009,11,21,11,03,14.50
2009,11,21,11,04,9.60
2009,11,21,11,05,6.40
2009,11,21,11,06,11.30
2009,11,21,11,07,8.10
2009,11,21,11,08,9.60
2009,11,21,11,09,17.70
2009,11,21,11,10,14.50
2009,11,21,11,11,11.30
2009,11,21,11,12,11.30
2009,11,21,11,13,9.60
2009,11,21,11,14,16.10
2009,11,21,11,15,9.60
2009,11,21,11,16,11.30
2009,11,21,11,17,8.10
2009,11,21,11,18,8.10
2009,11,21,11,19,6.40
2009,11,21,11,20,16.10
2009,11,21,11,21,9.60
2009,11,21,11,22,6.40
2009,11,21,11,23,14.50
2009,11,21,11,24,12.90
2009,11,21,11,25,14.50
2009,11,21,11,26,9.60
2009,11,21,11,27,9.60
2009,11,21,11,28,9.60
2009,11,21,11,29,9.60
2009,11,21,11,30,8.10
2009,11,21,11,31,16.10
2009,11,21,11,32,9.60
2009,11,21,11,33,19.30
2009,11,21,11,34,16.10
2009,11,21,11,35,9.60
2009,11,21,11,36,9.60
2009,11,21,11,37,9.60
2009,11,21,11,38,11.30
2009,11,21,11,39,6.40
2009,11,21,11,40,4.80
2009,11,21,11,41,11.30
2009,11,21,11,42,9.60
2009,11,21,11,43,14.50
2009,11,21,11,44,11.30
2009,11,21,11,45,8.10
2009,11,21,11,46,14.50
2009,11,21,11,47,16.10
2009,11,21,11,48,8.10
2009,11,21,11,49,9.60
2009,11,21,11,50,16.10
2009,11,21,11,51,11.30
2009,11,21,11,52,8.10
2009,11,21,11,53,19.30
2009,11,21,11,54,11.30
2009,11,21,11,55,9.60
2009,11,21,11,56,11.30
2009,11,21,11,57,9.60
2009,11,21,11,58,8.10
2009,11,21,11,59,9.60
2009,11,21,12,00,4.80
2009,11,21,12,01,11.30
2009,11,21,12,02,9.60
2009,11,21,12,03,8.10
2009,11,21,12,04,9.60
2009,11,21,12,05,22.50
2009,11,21,12,06,8.10
2009,11,21,12,07,9.60
2009,11,21,12,08,6.40
2009,11,21,12,09,3.20
2009,11,21,12,10,9.60
2009,11,21,12,11,8.10
2009,11,21,12,12,11.30
2009,11,21,12,13,11.30
2009,11,21,12,14,8.10
2009,11,21,12,15,9.60
2009,11,21,12,16,14.50
2009,11,21,12,17,11.30
2009,11,21,12,18,11.30
2009,11,21,12,19,14.50
2009,11,21,12,20,9.60
2009,11,21,12,21,16.10
2009,11,21,12,22,11.30
2009,11,21,12,23,16.10
2009,11,21,12,24,9.60
2009,11,21,12,25,11.30
2009,11,21,12,26,11.30
2009,11,21,12,27,16.10
2009,11,21,12,28,4.80
2009,11,21,12,29,11.30
2009,11,21,12,30,14.50
2009,11,21,12,31,12.90
2009,11,21,12,32,6.40
2009,11,21,12,33,20.90
2009,11,21,12,34,9.60
2009,11,21,12,35,8.10
2009,11,21,12,36,19.30
2009,11,21,12,37,20.90
2009,11,21,12,38,16.10
2009,11,21,12,39,16.10
2009,11,21,12,40,14.50
2009,11,21,12,41,25.70
2009,11,21,12,42,20.90
2009,11,21,12,43,9.60
2009,11,21,12,44,6.40
2009,11,21,12,45,6.40
2009,11,21,12,46,22.50
2009,11,21,12,47,3.20
2009,11,21,12,48,11.30
2009,11,21,12,49,8.10
2009,11,21,12,50,6.40
2009,11,21,12,51,9.60
2009,11,21,12,52,6.40
2009,11,21,12,53,19.30
2009,11,21,12,54,8.10
2009,11,21,12,55,14.50
2009,11,21,12,56,9.60
2009,11,21,12,57,11.30
2009,11,21,12,58,19.30
2009,11,21,12,59,14.50
2009,11,21,13,00,16.10
2009,11,21,13,01,11.30
2009,11,21,13,02,12.90
2009,11,21,13,03,11.30
2009,11,21,13,04,9.60
2009,11,21,13,05,6.40
2009,11,21,13,06,14.50
2009,11,21,13,07,11.30
2009,11,21,13,08,4.80
2009,11,21,13,09,8.10
2009,11,21,13,10,8.10
2009,11,21,13,11,6.40
2009,11,21,13,12,6.40
2009,11,21,13,13,4.80
2009,11,21,13,14,9.60
2009,11,21,13,15,20.90
2009,11,21,13,16,16.10
2009,11,21,13,17,9.60
2009,11,21,13,18,12.90
2009,11,21,13,19,12.90
2009,11,21,13,20,16.10
2009,11,21,13,21,17.70
2009,11,21,13,22,17.70
2009,11,21,13,23,14.50
2009,11,21,13,24,16.10
2009,11,21,13,25,11.30
2009,11,21,13,26,17.70
2009,11,21,13,27,16.10
2009,11,21,13,28,11.30
2009,11,21,13,29,11.30
2009,11,21,13,30,19.30
2009,11,21,13,31,6.40
2009,11,21,13,32,4.80
2009,11,21,13,33,16.10
2009,11,21,13,34,19.30
2009,11,21,13,35,24.20
2009,11,21,13,36,22.50
2009,11,21,13,37,8.10
2009,11,21,13,38,22.50
2009,11,21,13,39,16.10
2009,11,21,13,40,16.10
2009,11,21,13,41,9.60
2009,11,21,13,42,9.60
2009,11,21,13,43,14.50
2009,11,21,13,44,16.10
2009,11,21,13,45,16.10
2009,11,21,13,46,6.40
2009,11,21,13,47,9.60
2009,11,21,13,48,14.50
2009,11,21,13,49,16.10
2009,11,21,13,50,11.30
2009,11,21,13,51,17.70
2009,11,21,13,52,8.10
2009,11,21,13,53,9.60
2009,11,21,13,54,16.10
2009,11,21,13,55,19.30
2009,11,21,13,56,20.90
2009,11,21,13,57,17.70
2009,11,21,13,58,12.90
2009,11,21,13,59,20.90
2009,11,21,14,00,25.70
2009,11,21,14,01,19.30
2009,11,21,14,02,11.30
2009,11,21,14,03,17.70
2009,11,21,14,04,9.60
2009,11,21,14,05,14.50
2009,11,21,14,06,14.50
2009,11,21,14,07,22.50
2009,11,21,14,08,20.90
2009,11,21,14,09,11.30
2009,11,21,14,10,9.60
2009,11,21,14,11,20.90
2009,11,21,14,12,17.70
2009,11,21,14,13,20.90
2009,11,21,14,14,9.60
2009,11,21,14,15,17.70
2009,11,21,14,16,16.10
2009,11,21,14,17,20.90
2009,11,21,14,18,20.90
2009,11,21,14,19,11.30
2009,11,21,14,20,24.20
2009,11,21,14,21,22.50
2009,11,21,14,22,20.90
2009,11,21,14,23,8.10
2009,11,21,14,24,20.90
2009,11,21,14,25,17.70
2009,11,21,14,26,16.10
2009,11,21,14,27,14.50
2009,11,21,14,28,19.30
2009,11,21,14,29,24.20
2009,11,21,14,30,19.30
2009,11,21,14,31,25.70
2009,11,21,14,32,24.20
2009,11,21,14,33,11.30
2009,11,21,14,34,22.50
2009,11,21,14,35,19.30
2009,11,21,14,36,19.30
2009,11,21,14,37,14.50
2009,11,21,14,38,25.70
2009,11,21,14,39,16.10
2009,11,21,14,40,20.90
2009,11,21,14,41,20.90
2009,11,21,14,42,17.70
2009,11,21,14,43,20.90
2009,11,21,14,44,14.50
2009,11,21,14,45,24.20
2009,11,21,14,46,19.30
2009,11,21,14,47,16.10
2009,11,21,14,48,9.60
2009,11,21,14,49,9.60
2009,11,21,14,50,9.60
2009,11,21,14,51,22.50
2009,11,21,14,52,20.90
2009,11,21,14,53,17.70
2009,11,21,14,54,22.50
2009,11,21,14,55,11.30
2009,11,21,14,56,17.70
2009,11,21,14,57,17.70
2009,11,21,14,58,29.00
2009,11,21,14,59,19.30
2009,11,21,15,00,14.50
2009,11,21,15,01,14.50
2009,11,21,15,02,8.10
2009,11,21,15,03,19.30
2009,11,21,15,04,19.30
2009,11,21,15,05,16.10
2009,11,21,15,06,24.20
2009,11,21,15,07,14.50
2009,11,21,15,08,25.70
2009,11,21,15,09,16.10
2009,11,21,15,10,30.60
2009,11,21,15,11,17.70
2009,11,21,15,12,22.50
2009,11,21,15,13,17.70
2009,11,21,15,14,9.60
2009,11,21,15,15,19.30
2009,11,21,15,16,20.90
2009,11,21,15,17,29.00
2009,11,21,15,18,27.40
2009,11,21,15,19,19.30
2009,11,21,15,20,16.10
2009,11,21,15,21,22.50
2009,11,21,15,22,24.20
2009,11,21,15,23,19.30
2009,11,21,15,24,17.70
2009,11,21,15,25,19.30
2009,11,21,15,26,17.70
2009,11,21,15,27,9.60
2009,11,21,15,28,25.70
2009,11,21,15,29,19.30
2009,11,21,15,30,14.50
2009,11,21,15,31,20.90
2009,11,21,15,32,24.20
2009,11,21,15,33,17.70
2009,11,21,15,34,24.20
2009,11,21,15,35,25.70
2009,11,21,15,36,22.50
2009,11,21,15,37,22.50
2009,11,21,15,38,16.10
2009,11,21,15,39,19.30
2009,11,21,15,40,9.60
2009,11,21,15,41,16.10
2009,11,21,15,42,20.90
2009,11,21,15,43,16.10
2009,11,21,15,44,24.20
2009,11,21,15,45,20.90
2009,11,21,15,46,22.50
2009,11,21,15,47,14.50
2009,11,21,15,48,29.00
2009,11,21,15,49,24.20
2009,11,21,15,50,17.70
2009,11,21,15,51,20.90
2009,11,21,15,52,19.30
2009,11,21,15,53,22.50
2009,11,21,15,54,22.50
2009,11,21,15,55,22.50
2009,11,21,15,56,16.10
2009,11,21,15,57,14.50
2009,11,21,15,58,20.90
2009,11,21,15,59,22.50
2009,11,21,16,00,17.70
2009,11,21,16,01,17.70
2009,11,21,16,02,19.30
2009,11,21,16,03,22.50
2009,11,21,16,04,20.90
2009,11,21,16,05,24.20
2009,11,21,16,06,20.90
2009,11,21,16,07,17.70
2009,11,21,16,08,24.20
2009,11,21,16,09,29.00
2009,11,21,16,10,30.60
2009,11,21,16,11,24.20
2009,11,21,16,12,20.90
2009,11,21,16,13,16.10
2009,11,21,16,14,17.70
2009,11,21,16,15,33.80
2009,11,21,16,16,19.30
2009,11,21,16,17,17.70
2009,11,21,16,18,16.10
2009,11,21,16,19,19.30
2009,11,21,16,20,17.70
2009,11,21,16,21,12.90
2009,11,21,16,22,16.10
2009,11,21,16,23,16.10
2009,11,21,16,24,22.50
2009,11,21,16,25,27.40
2009,11,21,16,26,17.70
2009,11,21,16,27,24.20
2009,11,21,16,28,16.10
2009,11,21,16,29,16.10
2009,11,21,16,30,16.10
2009,11,21,16,31,25.70
2009,11,21,16,32,12.90
2009,11,21,16,33,20.90
2009,11,21,16,34,22.50
2009,11,21,16,35,22.50
2009,11,21,16,36,20.90
2009,11,21,16,37,22.50
2009,11,21,16,38,24.20
2009,11,21,16,39,20.90
2009,11,21,16,40,19.30
2009,11,21,16,41,19.30
2009,11,21,16,42,20.90
2009,11,21,16,43,27.40
2009,11,21,16,44,14.50
2009,11,21,16,45,22.50
2009,11,21,16,46,22.50
2009,11,21,16,47,16.10
2009,11,21,16,48,17.70
2009,11,21,16,49,22.50
2009,11,21,16,50,12.90
2009,11,21,16,51,17.70
2009,11,21,16,52,19.30
2009,11,21,16,53,16.10
2009,11,21,16,54,12.90
2009,11,21,16,55,16.10
2009,11,21,16,56,19.30
2009,11,21,16,57,16.10
2009,11,21,16,58,14.50
2009,11,21,16,59,29.00
2009,11,21,17,00,22.50
2009,11,21,17,01,11.30
2009,11,21,17,02,17.70
2009,11,21,17,03,19.30
2009,11,21,17,04,11.30
2009,11,21,17,05,22.50
2009,11,21,17,06,19.30
2009,11,21,17,07,16.10
2009,11,21,17,08,9.60
2009,11,21,17,09,22.50
2009,11,21,17,10,22.50
2009,11,21,17,11,20.90
2009,11,21,17,12,17.70
2009,11,21,17,13,22.50
2009,11,21,17,14,19.30
2009,11,21,17,15,29.00
2009,11,21,17,16,24.20
2009,11,21,17,17,17.70
2009,11,21,17,18,19.30
2009,11,21,17,19,20.90
2009,11,21,17,20,24.20
2009,11,21,17,21,17.70
2009,11,21,17,22,11.30
2009,11,21,17,23,25.70
2009,11,21,17,24,24.20
2009,11,21,17,25,24.20
2009,11,21,17,26,24.20
2009,11,21,17,27,11.30
2009,11,21,17,28,20.90
2009,11,21,17,29,27.40
2009,11,21,17,30,27.40
2009,11,21,17,31,16.10
2009,11,21,17,32,16.10
2009,11,21,17,33,22.50
2009,11,21,17,34,29.00
2009,11,21,17,35,22.50
2009,11,21,17,36,30.60
2009,11,21,17,37,24.20
2009,11,21,17,38,16.10
2009,11,21,17,39,27.40
2009,11,21,17,40,24.20
2009,11,21,17,41,38.60
2009,11,21,17,42,24.20
2009,11,21,17,43,25.70
2009,11,21,17,44,25.70
2009,11,21,17,45,19.30
2009,11,21,17,46,22.50
2009,11,21,17,47,14.50
2009,11,21,17,48,8.10
2009,11,21,17,49,17.70
2009,11,21,17,50,22.50
2009,11,21,17,51,19.30
2009,11,21,17,52,29.00